Regional Weather Roundup
Issued by NWS Little Rock, AR

Home | Current Version | Previous Version | Graphics & Text | Print | Product List | Glossary On
Versions: 1 2 3 4 5 6 7 8 9 10 11 12 13 14 15 16 17 18 19 20 21 22 23 24 25 26 27 28 29 30 31 32 33 34 35 36 37 38 39 40 41 42 43 44 45
000
ASUS44 KLZK 041005
RWRLZK

WEATHER ROUNDUP FOR ARKANSAS
NATIONAL WEATHER SERVICE LITTLE ROCK AR
500 AM CDT SAT JUL 04 2015

NOTE: "FAIR" INDICATES FEW OR NO CLOUDS BELOW 12,000 FEET WITH NO
SIGNIFICANT WEATHER AND/OR OBSTRUCTIONS TO VISIBILITY.

ARZ001-003-010-029-041100-
NORTHWEST ARKANSAS

CITY           SKY/WX    TMP DP  RH WIND       PRES   REMARKS
FAYETTEVILLE   FOG       65  65 100 CALM      29.96S VSB 1/4
FORT SMITH     FOG       70  68  93 CALM      29.92R VSB 1
HARRISON       FOG       68  68 100 CALM      29.97R VSB<1/4
BENTONVILLE    PTCLDY    70  64  83 CALM      29.96S
ROGERS         PTCLDY    69  68  96 CALM      29.97S
SILOAM SPGS    PTCLDY    66  63  88 CALM        N/A
HIGHFILL       CLOUDY    67  67 100 CALM      29.96R FOG
$$

ARZ004-005-016-041100-
NORTH CENTRAL ARKANSAS

CITY           SKY/WX    TMP DP  RH WIND       PRES   REMARKS
BATESVILLE     MOCLDY    66  66 100 CALM      29.93R
FLIPPIN        CLOUDY    68  66  94 CALM      29.93R VSB<1/4
MTN HOME       CLOUDY    68  67  96 E3        29.95R
$$

ARZ040-041-041100-
WEST CENTRAL ARKANSAS

CITY           SKY/WX    TMP DP  RH WIND       PRES   REMARKS
MENA           CLOUDY    72  70  94 CALM      29.96R
MOUNT IDA      LGT RAIN  72  70  93 CALM      29.93S
$$

ARZ009-017-025-026-028-041100-
NORTHEAST ARKANSAS

CITY           SKY/WX    TMP DP  RH WIND       PRES   REMARKS
JONESBORO      FOG       69  69 100 N3        29.92S VSB 1/2
NEWPORT        PTCLDY    70  70 100 CALM      29.94R
WALNUT RIDGE   CLOUDY    72  70  94 CALM      29.93R VSB 1/4
BLYTHEVILLE    PTCLDY    72  72 100 CALM      29.93R
$$

ARZ022-023-033-042-044-041100-
CENTRAL ARKANSAS

CITY           SKY/WX    TMP DP  RH WIND       PRES   REMARKS
LITTLE ROCK    MOCLDY    70  67  90 CALM      29.94F
N LITTLE ROCK    N/A     68  68 100 SW3       29.94F
JACKSONVILLE   PTCLDY    69  69  99 S7        29.93F
SEARCY         CLOUDY    69  69 100 CALM      29.95R
HOT SPRINGS    LGT RAIN  71  69  93 CALM      29.94S
RUSSELLVILLE   MOCLDY    70  69  97 NE3       29.93S
CLINTON        CLOUDY    66  66 100 CALM      29.96R FOG
$$

ARZ036-041100-
EAST ARKANSAS

CITY           SKY/WX    TMP DP  RH WIND       PRES   REMARKS
WEST MEMPHIS   CLOUDY    73  72  96 SW6       29.93R
$$

ARZ050-053-066-070-073-041100-
SOUTHWEST ARKANSAS

CITY           SKY/WX    TMP DP  RH WIND       PRES   REMARKS
ARKADELPHIA    FAIR      72  72 100 SW7       29.93S
CAMDEN         HVY RAIN  70  68  94 MISG      29.99R
TEXARKANA      MOCLDY    77  73  87 SW14      29.92F
EL DORADO      CLOUDY    75  69  81 N9G17     29.98R
DE QUEEN       CLOUDY    71  71 100 W6        29.93R THUNDER
$$

ARZ056-057-069-041100-
SOUTHEAST ARKANSAS

CITY           SKY/WX    TMP DP  RH WIND       PRES   REMARKS
PINE BLUFF     LGT RAIN  72  70  93 CALM      29.95R
STUTTGART      CLOUDY    72  68  88 W3        29.93S
MONTICELLO     RAIN      72  70  93 W8        29.96F

$$




USA.gov is the U.S. government's official web portal to all federal, state and local government web resources and services.